STARLINK-1700 (46549 NORAD) Tracking and Keplerian Element Data

This shows tracking and keplerian element data for the satellite.

Feedback or suggestion? Click here.




ElementValue
Catalog46549
NameSTARLINK-1700
Epoch Orbit177
Epoch Day304.91667824
Epoch Year2020
RAAN321.9453
Inclination53.0017
Eccentricity0.0001157
Argument of Perigee64.5868
Mean Anonmoly192.1582
Mean Motion15.62707201
Decay Rate-0.00037876
L11 46549U 20070T 20304.91667824 -.00037876 00000-0 -41047-3 0 9991
L22 46549 53.0017 321.9453 0001157 64.5868 192.1582 15.62707201 1778

Live tracking and technical data element details for STARLINK-1700 (NORAD 46549). STARLINK-1700 can be tracked NOW for your location showing map with azimuth and elevation plus other details from your city location.

Track the satellite on the map from your city or location and see movement details for azimuth, elevation, latitude, longitude, range, height, and movement on the map or in text.







IsCatalogInMostPopularTable: catalog: 46549, numindb: 3
Update: records affected: 1



GetName: 46549 STARLINK-1700

Hit Count: updated at: Sat, 31 Oct 2020 09:29:31 GMT